Hourly Weather Bolshie Klyuchi

Today, 19 June, Saturday

Time Temperature Precipitation Wind Pressure Humidity
00:00 +14°C° 0 mm 1 mps 740 mmHg 96%
01:00 +14°C° 0 mm 1 mps 740 mmHg 97%
02:00 +14°C° 0 mm 1 mps 740 mmHg 97%
03:00 +14°C° 0 mm 1 mps 740 mmHg 97%
04:00 +14°C° 0 mm 1 mps 740 mmHg 97%
05:00 +15°C° 0 mm 1 mps 740 mmHg 96%
06:00 +15°C° 0 mm 1 mps 741 mmHg 96%
07:00 +16°C° 0 mm 2 mps 741 mmHg 90%
08:00 +17°C° 0 mm 2 mps 741 mmHg 85%
09:00 +17°C° 0 mm 2 mps 741 mmHg 82%
10:00 +17°C° 0.1 mm 2 mps 741 mmHg 81%
11:00 +17°C° 0.1 mm 2 mps 741 mmHg 81%
12:00 +17°C° 0.1 mm 2 mps 741 mmHg 80%
13:00 +17°C° 0.3 mm 2 mps 741 mmHg 80%
14:00 +17°C° 0.3 mm 3 mps 740 mmHg 79%
15:00 +19°C° 0 mm 4 mps 740 mmHg 67%
16:00 +19°C° 0 mm 3 mps 740 mmHg 67%
17:00 +18°C° 0 mm 3 mps 740 mmHg 67%
18:00 +18°C° 0 mm 3 mps 740 mmHg 66%
19:00 +17°C° 0 mm 3 mps 740 mmHg 71%
20:00 +15°C° 0 mm 2 mps 740 mmHg 76%
21:00 +13°C° 0 mm 1 mps 741 mmHg 83%
22:00 +13°C° 0 mm 1 mps 741 mmHg 83%
23:00 +13°C° 0 mm 1 mps 741 mmHg 83%

Tomorrow, 20 June, Sunday

Time Temperature Precipitation Wind Pressure Humidity
00:00 +13°C° 0 mm 1 mps 741 mmHg 83%
01:00 +13°C° 0.6 mm 1 mps 741 mmHg 88%
02:00 +12°C° 0.6 mm 1 mps 741 mmHg 93%
03:00 +12°C° 0.6 mm 1 mps 741 mmHg 98%
04:00 +12°C° 0.2 mm 1 mps 741 mmHg 98%
05:00 +12°C° 0.2 mm 1 mps 741 mmHg 98%
06:00 +12°C° 0.2 mm 1 mps 741 mmHg 98%
07:00 +13°C° 0.2 mm 1 mps 741 mmHg 97%
08:00 +13°C° 0.2 mm 1 mps 741 mmHg 97%
09:00 +13°C° 0.2 mm 1 mps 741 mmHg 96%
10:00 +13°C° 0.4 mm 1 mps 742 mmHg 96%
11:00 +13°C° 0.4 mm 1 mps 742 mmHg 96%
12:00 +13°C° 0.4 mm 1 mps 742 mmHg 96%
13:00 +13°C° 0.2 mm 1 mps 742 mmHg 97%
14:00 +13°C° 0.2 mm 1 mps 742 mmHg 97%
15:00 +12°C° 0.2 mm 1 mps 742 mmHg 97%
16:00 +12°C° 0.2 mm 1 mps 742 mmHg 97%
17:00 +12°C° 0.2 mm 1 mps 742 mmHg 97%
18:00 +12°C° 0.2 mm 1 mps 743 mmHg 97%
19:00 +12°C° 0.3 mm 1 mps 743 mmHg 97%
20:00 +12°C° 0.3 mm 1 mps 743 mmHg 97%
21:00 +11°C° 0.3 mm 1 mps 743 mmHg 97%
22:00 +11°C° 0 mm 1 mps 743 mmHg 97%
23:00 +10°C° 0 mm 1 mps 743 mmHg 97%

Day after tomorrow, 21 June, Monday

Time Temperature Precipitation Wind Pressure Humidity
00:00 +10°C° 0 mm 1 mps 743 mmHg 97%
01:00 +10°C° 0 mm 1 mps 743 mmHg 96%
02:00 +11°C° 0 mm 1 mps 743 mmHg 96%
03:00 +10°C° 0 mm 0 mps 743 mmHg 96%
04:00 +10°C° 0 mm 0 mps 744 mmHg 96%
05:00 +10°C° 0 mm 0 mps 744 mmHg 95%
06:00 +11°C° 0 mm 1 mps 744 mmHg 95%
07:00 +12°C° 0 mm 1 mps 744 mmHg 92%
08:00 +13°C° 0 mm 1 mps 744 mmHg 88%
09:00 +13°C° 0 mm 1 mps 745 mmHg 85%
10:00 +14°C° 0 mm 1 mps 745 mmHg 81%
11:00 +14°C° 0 mm 1 mps 745 mmHg 78%
12:00 +15°C° 0 mm 1 mps 745 mmHg 74%
13:00 +15°C° 0.3 mm 1 mps 745 mmHg 76%
14:00 +14°C° 0.3 mm 1 mps 745 mmHg 78%
15:00 +14°C° 0.3 mm 2 mps 745 mmHg 81%
16:00 +14°C° 0 mm 1 mps 745 mmHg 82%
17:00 +14°C° 0 mm 1 mps 745 mmHg 84%
18:00 +14°C° 0 mm 1 mps 745 mmHg 85%
19:00 +13°C° 0 mm 1 mps 746 mmHg 89%
20:00 +12°C° 0 mm 1 mps 746 mmHg 92%
21:00 +11°C° 0 mm 1 mps 746 mmHg 95%
22:00 +11°C° 0 mm 1 mps 746 mmHg 95%
23:00 +9°C° 0 mm 0 mps 746 mmHg 95%

22 June, Tuesday

Time Temperature Precipitation Wind Pressure Humidity
00:00 +9°C° 0 mm 0 mps 746 mmHg 95%
01:00 +9°C° 0 mm 0 mps 747 mmHg 95%
02:00 +9°C° 0 mm 0 mps 747 mmHg 95%
03:00 +8°C° 0 mm 0 mps 747 mmHg 95%
04:00 +9°C° 0 mm 0 mps 747 mmHg 94%
05:00 +10°C° 0 mm 0 mps 747 mmHg 93%
06:00 +11°C° 0 mm 0 mps 747 mmHg 91%
07:00 +14°C° 0 mm 0 mps 747 mmHg 80%
08:00 +16°C° 0 mm 0 mps 747 mmHg 69%
09:00 +19°C° 0 mm 0 mps 747 mmHg 58%
10:00 +21°C° 0 mm 0 mps 747 mmHg 53%
11:00 +24°C° 0 mm 1 mps 747 mmHg 48%
12:00 +26°C° 0 mm 1 mps 747 mmHg 43%
13:00 +25°C° 0 mm 1 mps 746 mmHg 47%
14:00 +25°C° 0 mm 2 mps 746 mmHg 52%
15:00 +24°C° 0 mm 2 mps 746 mmHg 56%
16:00 +24°C° 0 mm 2 mps 746 mmHg 59%
17:00 +24°C° 0 mm 2 mps 746 mmHg 63%
18:00 +24°C° 0 mm 1 mps 746 mmHg 66%
19:00 +22°C° 0 mm 1 mps 746 mmHg 75%
20:00 +17°C° 0 mm 0 mps 747 mmHg 83%
21:00 +15°C° 0 mm 0 mps 747 mmHg 91%
22:00 +15°C° 0 mm 0 mps 747 mmHg 92%
23:00 +14°C° 0 mm 0 mps 747 mmHg 93%

23 June, Wednesday

Time Temperature Precipitation Wind Pressure Humidity
00:00 +13°C° 0 mm 0 mps 747 mmHg 94%
01:00 +13°C° 0 mm 0 mps 747 mmHg 94%
02:00 +13°C° 0 mm 0 mps 747 mmHg 95%
03:00 +13°C° 0 mm 1 mps 747 mmHg 96%
04:00 +13°C° 0 mm 0 mps 747 mmHg 94%
05:00 +13°C° 0 mm 0 mps 748 mmHg 93%
06:00 +14°C° 0 mm 0 mps 748 mmHg 92%
07:00 +17°C° 0 mm 0 mps 748 mmHg 82%
08:00 +19°C° 0 mm 0 mps 748 mmHg 72%
09:00 +24°C° 0 mm 1 mps 748 mmHg 62%
10:00 +25°C° 0 mm 1 mps 747 mmHg 56%
11:00 +27°C° 0 mm 1 mps 747 mmHg 50%
12:00 +28°C° 0 mm 1 mps 747 mmHg 44%
13:00 +29°C° 0 mm 2 mps 746 mmHg 43%
14:00 +29°C° 0 mm 2 mps 746 mmHg 42%
15:00 +29°C° 0 mm 3 mps 746 mmHg 41%
16:00 +28°C° 0 mm 2 mps 746 mmHg 48%
17:00 +27°C° 0 mm 2 mps 746 mmHg 56%
18:00 +26°C° 0 mm 2 mps 746 mmHg 64%
19:00 +24°C° 0 mm 1 mps 746 mmHg 72%
20:00 +22°C° 0 mm 1 mps 746 mmHg 79%
21:00 +18°C° 0 mm 0 mps 746 mmHg 86%
22:00 +17°C° 0 mm 0 mps 746 mmHg 88%
23:00 +16°C° 0 mm 0 mps 746 mmHg 90%

24 June, Thursday

Time Temperature Precipitation Wind Pressure Humidity
00:00 +18°C° 0 mm 1 mps 746 mmHg 91%
01:00 +16°C° 0 mm 1 mps 746 mmHg 92%
02:00 +16°C° 0 mm 1 mps 747 mmHg 93%
03:00 +14°C° 0 mm 0 mps 747 mmHg 94%
04:00 +16°C° 0 mm 1 mps 747 mmHg 93%
05:00 +16°C° 0 mm 1 mps 747 mmHg 92%
06:00 +18°C° 0 mm 1 mps 747 mmHg 90%
07:00 +19°C° 0 mm 1 mps 747 mmHg 88%
08:00 +17°C° 0 mm 0 mps 747 mmHg 85%
09:00 +18°C° 0 mm 0 mps 747 mmHg 82%
10:00 +20°C° 0.1 mm 0 mps 747 mmHg 75%
11:00 +21°C° 0.1 mm 0 mps 747 mmHg 69%
12:00 +24°C° 0.1 mm 1 mps 746 mmHg 62%
13:00 +26°C° 0 mm 1 mps 746 mmHg 57%
14:00 +27°C° 0 mm 1 mps 746 mmHg 52%
15:00 +29°C° 0 mm 1 mps 745 mmHg 47%
16:00 +28°C° 0 mm 1 mps 745 mmHg 52%
17:00 +27°C° 0 mm 1 mps 745 mmHg 57%
18:00 +27°C° 0 mm 2 mps 745 mmHg 62%
19:00 +24°C° 0 mm 1 mps 745 mmHg 70%
20:00 +22°C° 0 mm 1 mps 746 mmHg 79%
21:00 +20°C° 0 mm 1 mps 746 mmHg 87%
22:00 +19°C° 0 mm 1 mps 746 mmHg 89%
23:00 +19°C° 0 mm 1 mps 746 mmHg 91%
Show more